Location: Unspecified
(0.0000°N, 0.0000°E)
Time: 18:08:46
(UTC+00:00)

Vanguard 2 - Visible Passes

Search period start: 19 October 2017 00:00
Search period end: 29 October 2017 00:00
Orbit: 554 x 2939 km, 32.9° (Epoch: 18 October)

Date Brightness Start Highest point End Pass type
(mag) Time Alt. Az. Time Alt. Az. Time Alt. Az.
19 Oct 11.3 01:54:56 19° SSW 02:03:36 29° SSE 02:17:57 10° E visible
19 Oct 10.6 04:00:22 10° SW 04:17:41 68° SE 04:34:01 10° ENE visible
20 Oct 11.7 00:11:29 12° SE 00:11:29 12° SE 00:14:30 10° SE visible
20 Oct 11.1 02:12:59 21° SSW 02:22:30 37° SSE 02:38:12 10° E visible
20 Oct 10.4 04:18:34 10° SW 04:36:12 84° SE 04:52:35 10° ENE visible
21 Oct 11.5 00:29:43 17° SE 00:29:43 17° SE 00:36:52 10° ESE visible
21 Oct 10.8 02:31:14 25° SSW 02:41:12 47° SE 02:57:55 10° ENE visible
21 Oct 10.3 04:37:00 10° WSW 04:54:40 80° NW 05:10:52 10° NE visible
21 Oct 9.9 18:03:55 10° WSW 18:06:14 14° SSW 18:08:53 10° S visible
22 Oct 11.3 00:48:05 23° SE 00:48:05 23° SE 00:58:28 10° ESE visible
22 Oct 10.5 02:49:37 28° SSW 02:59:45 60° SE 03:17:07 10° ENE visible
22 Oct 10.4 04:55:42 10° WSW 05:13:08 65° NW 05:28:57 10° NE visible
23 Oct 11.1 01:06:33 30° SE 01:06:33 30° SE 01:19:20 10° E visible
23 Oct 10.3 03:08:05 31° SW 03:18:14 75° SE 03:35:58 10° ENE visible
23 Oct 10.5 05:14:47 10° WSW 05:31:41 51° NW 05:46:52 10° NE visible
24 Oct 10.8 01:25:01 39° SE 01:25:01 39° SE 01:39:32 10° E visible
24 Oct 10.2 03:26:33 32° SW 03:36:41 89° NNW 03:54:29 10° NE visible
25 Oct 10.5 01:43:27 50° SE 01:43:27 50° SE 01:59:09 10° ENE visible
25 Oct 10.2 03:44:59 31° WSW 03:55:10 73° NW 04:12:45 10° NE visible
26 Oct 10.2 02:01:49 63° SE 02:01:49 63° SE 02:18:20 10° ENE visible
26 Oct 10.3 04:03:20 28° W 04:13:45 59° NW 04:30:50 10° NE visible
27 Oct 11.7 00:18:33 13° E 00:18:33 13° E 00:20:11 10° E visible
27 Oct 10.0 02:20:04 78° ESE 02:20:04 78° ESE 02:37:07 10° ENE visible
27 Oct 10.5 04:21:35 23° W 04:32:28 47° NNW 04:48:46 10° NE visible
28 Oct 11.6 00:36:42 18° E 00:36:42 18° E 00:40:17 10° ENE visible
28 Oct 10.0 02:38:12 80° N 02:38:12 80° N 02:55:34 10° NE visible
28 Oct 10.8 04:39:43 18° W 04:51:22 37° NNW 05:06:38 10° NNE visible
